{"data":{"norad_id":56464,"epoch":"2026-09-20T14:22:48.280224Z","epoch_age_seconds":103407,"freshness":"FRESH","line1":"1 56464U 23064S   26263.59916991  .00000607  00000+0  58688-4 0  9999","line2":"2 56464  70.0008  12.9375 0003340 270.7021  89.3755 14.98333541184447","mean_motion":14.98333541,"eccentricity":0.000334,"inclination_deg":70.0008,"raan_deg":12.9375,"arg_perigee_deg":270.7021,"mean_anomaly_deg":89.3755,"bstar":5.8688e-5,"rev_number":18444,"period_min":96.10677199677,"perigee_km":569.72357994738,"apogee_km":574.36630148378,"semimajor_km":6950.1819407156,"source":"CELESTRAK","updated_at":"2026-09-21T09:00:33.444288Z"}}